DIAMANT DEB, 2684

Orbit data source: Space-Track

DIAMANT DEB, 2684 is space debris in LEO originally from a launch on Wed, 15 Feb 1967 UTC launched from the Hamma Guira Space Track Range (HGSTR). Debris objects in space refer to the collection of defunct objects orbiting the Earth. Examples of debris include non-operational satellites, rocket bodies, and fragments generated from explosions, collisions, or faulty payload assembly.

Loading next visibility...
Identifier
2684, 1967-014C
Orbit
LEO
Last TLE update
4 days ago
Origin
Manufacturer
Unknown
Mission
Spacecraft
Bus & Motor
Unknown
Mass
Unknown
Launch date (UTC)
1967-02-15 (58 years ago)
Launch vehicle
Unknown
Launch site
Hamma Guira Space Track Range (HGSTR)
Object type
Payload
Rocket body
Debris
Shape & HBR
Unknown
Radar Cross Section
Small (<0.1 m²)

Expand to show TLE details & history

TLE from 4 days ago
0 DIAMANT DEB
1 02684U 67014C   25178.67566209  .00000962  00000-0  25218-3 0  9990
2 02684  39.9584 323.3684 0453443  20.1056 341.6956 14.06450424891019
Epoch: 2025-06-27T16:12Z
TLE epoch observation values (Epoch: 2025-06-27T16:12:57.204Z)
Latitude
0.00001°
Longitude
164.10494°
Altitude
560.528 km
Speed
7.743 km/s
True Right ascension
21h 33m 28s
True Declination
0° 00' 00"
Sunlit
Object was in full shadow at epoch
Visualization orbit readout
Latitude
39.72157°
Longitude
-115.27593°
Altitude
668.12 km
Speed
7.634 km/s
Apparent Right ascension
07h 05m 03s
Apparent Declination
6° 42' 52"
Sunlit
Object is in daylight
Visualization observer readout
Local Sidereal Time
00:19:46
Azimuth
77.565° E
Elevation
-4.27°
Doppler factor
1
Orbital elements
Apogee altitude
1,202.71 km
Perigee altitude
545.035 km
Semi-major axis
7,252.009 km
Eccentricity
0.04534
Inclination
39.9584°
RAAN
323.3684°
Arg. of periapsis
20.1056°
True anomaly
Unknown
Mean anomaly
341.6956°
Eccentric anomaly
Unknown
Mean motion
3.51444 °/min
Orbital period
102.43 mins
BSTAR
0.00025218
Loading maneuver chart data...
Loading SW <> Apogee altitude chart data...
Loading historical data...
Loading historical data...
Loading historical data...
Loading historical data...
Loading historical data...
Loading historical data...
Loading historical data...

DIAMANT DEB Visibility forecast

Observer location: undefined°, undefined°

Span
Click to sort rows by Start time (UTC) header in descending order
Start Az.
Max El. time (UTC)
Max El. Az.
Max El.
End time (UTC)
End Az.
8 mins2025-07-01 14:16:57.820Z266.706° W2025-07-01 14:19:57.820Z268.223° W43.616°2025-07-01 14:24:57.820Z87.76° E
8 mins2025-07-01 16:04:57.820Z274.478° WNW2025-07-01 16:07:57.820Z220.539° SW42.631°2025-07-01 16:12:57.820Z113.546° SE
8 mins2025-07-01 17:52:57.820Z255.492° W2025-07-01 17:55:57.820Z208.518° SW25.544°2025-07-01 18:00:57.820Z152.053° SSE
6 mins2025-07-02 12:22:57.820Z231.608° WSW2025-07-02 12:24:57.820Z183.419° SSW38.733°2025-07-02 12:28:57.820Z85.21° E
|